Time,TemperatureF,DewpointF,PressureIn,WindDirection,WindDirectionDegrees,WindSpeedMPH,WindSpeedGustMPH,Humidity,HourlyPrecipIn,Conditions,Clouds,dailyrainin,SolarRadiationWatts/m^2,SoftwareType,DateUTC
2013-05-12 00:21:00,61.0,47.0,-100.00,SSE,158,1.0,10.0,61,0.00,,,0.00,1.000000,,2013-05-12 07:21:00,
2013-05-12 00:32:00,61.0,47.0,-100.00,SSE,158,1.0,10.0,61,0.00,,,0.00,1.000000,,2013-05-12 07:32:00,
2013-05-12 00:42:00,61.0,47.0,-100.00,SSE,158,1.0,10.0,61,0.00,,,0.00,1.000000,,2013-05-12 07:42:00,
2013-05-12 00:52:00,61.0,47.0,-100.00,SSE,158,1.0,10.0,61,0.00,,,0.00,1.000000,,2013-05-12 07:52:00,
2013-05-12 01:21:00,57.0,49.0,-100.00,ENE,73,2.0,4.0,74,0.00,,,0.00,1.000000,,2013-05-12 08:21:00,
2013-05-12 01:32:00,57.0,49.0,-100.00,ENE,73,2.0,4.0,74,0.00,,,0.00,1.000000,,2013-05-12 08:32:00,
2013-05-12 01:41:00,57.0,49.0,-100.00,ENE,73,2.0,4.0,74,0.00,,,0.00,1.000000,,2013-05-12 08:41:00,
2013-05-12 01:52:00,57.0,49.0,-100.00,ENE,73,2.0,4.0,74,0.00,,,0.00,1.000000,,2013-05-12 08:52:00,
2013-05-12 02:21:00,56.0,47.0,-100.00,East,96,2.0,5.0,72,0.00,,,0.00,1.000000,,2013-05-12 09:21:00,
2013-05-12 02:32:00,56.0,47.0,-100.00,East,96,2.0,5.0,72,0.00,,,0.00,1.000000,,2013-05-12 09:32:00,
2013-05-12 02:42:00,56.0,47.0,-100.00,East,96,2.0,5.0,72,0.00,,,0.00,1.000000,,2013-05-12 09:42:00,
2013-05-12 02:52:00,56.0,47.0,-100.00,East,96,2.0,5.0,72,0.00,,,0.00,1.000000,,2013-05-12 09:52:00,
2013-05-12 03:22:00,53.0,48.0,-100.00,East,81,2.0,3.0,83,0.00,,,0.00,1.000000,,2013-05-12 10:22:00,
2013-05-12 03:33:00,53.0,48.0,-100.00,East,81,2.0,3.0,83,0.00,,,0.00,1.000000,,2013-05-12 10:33:00,
2013-05-12 03:42:00,53.0,48.0,-100.00,East,81,2.0,3.0,83,0.00,,,0.00,1.000000,,2013-05-12 10:42:00,
2013-05-12 03:52:00,53.0,48.0,-100.00,East,81,2.0,3.0,83,0.00,,,0.00,1.000000,,2013-05-12 10:52:00,
2013-05-12 04:21:00,51.0,48.0,-100.00,ENE,63,3.0,5.0,89,0.00,,,0.00,1.000000,,2013-05-12 11:21:00,
2013-05-12 04:32:00,51.0,48.0,-100.00,ENE,63,3.0,5.0,89,0.00,,,0.00,1.000000,,2013-05-12 11:32:00,
2013-05-12 04:42:00,51.0,48.0,-100.00,ENE,63,3.0,5.0,89,0.00,,,0.00,1.000000,,2013-05-12 11:42:00,
2013-05-12 04:51:00,51.0,48.0,-100.00,ENE,63,3.0,5.0,89,0.00,,,0.00,1.000000,,2013-05-12 11:51:00,
2013-05-12 05:21:00,50.0,47.0,-100.00,East,86,3.0,4.0,90,0.00,,,0.00,1.000000,,2013-05-12 12:21:00,
2013-05-12 05:32:00,50.0,47.0,-100.00,East,86,3.0,4.0,90,0.00,,,0.00,1.000000,,2013-05-12 12:32:00,
2013-05-12 05:41:00,50.0,47.0,-100.00,East,86,3.0,4.0,90,0.00,,,0.00,1.000000,,2013-05-12 12:41:00,
2013-05-12 05:51:00,50.0,47.0,-100.00,East,86,3.0,4.0,90,0.00,,,0.00,1.000000,,2013-05-12 12:51:00,
2013-05-12 06:21:00,49.0,46.0,-100.00,East,88,3.0,4.0,90,0.00,,,0.00,1.000000,,2013-05-12 13:21:00,
2013-05-12 06:31:00,49.0,46.0,-100.00,East,88,3.0,4.0,90,0.00,,,0.00,1.000000,,2013-05-12 13:31:00,
2013-05-12 06:41:00,49.0,46.0,-100.00,East,88,3.0,4.0,90,0.00,,,0.00,1.000000,,2013-05-12 13:41:00,
2013-05-12 06:52:00,49.0,46.0,-100.00,East,88,3.0,4.0,90,0.00,,,0.00,1.000000,,2013-05-12 13:52:00,
2013-05-12 07:21:00,51.0,48.0,-100.00,ENE,70,3.0,5.0,89,0.00,,,0.00,37.000000,,2013-05-12 14:21:00,
2013-05-12 07:31:00,51.0,48.0,-100.00,ENE,70,3.0,5.0,89,0.00,,,0.00,37.000000,,2013-05-12 14:31:00,
2013-05-12 07:42:00,51.0,48.0,-100.00,ENE,70,3.0,5.0,89,0.00,,,0.00,37.000000,,2013-05-12 14:42:00,
2013-05-12 07:51:00,51.0,48.0,-100.00,ENE,70,3.0,5.0,89,0.00,,,0.00,37.000000,,2013-05-12 14:51:00,
2013-05-12 08:21:00,57.0,49.0,-100.00,ENE,75,3.0,4.0,75,0.00,,,0.00,190.000000,,2013-05-12 15:21:00,
2013-05-12 08:33:00,57.0,49.0,-100.00,ENE,75,3.0,4.0,75,0.00,,,0.00,190.000000,,2013-05-12 15:33:00,
2013-05-12 08:42:00,57.0,49.0,-100.00,ENE,75,3.0,4.0,75,0.00,,,0.00,190.000000,,2013-05-12 15:42:00,
2013-05-12 08:52:00,57.0,49.0,-100.00,ENE,75,3.0,4.0,75,0.00,,,0.00,190.000000,,2013-05-12 15:52:00,
2013-05-12 09:23:00,64.0,52.0,-100.00,SW,215,3.0,4.0,66,0.00,,,0.00,395.000000,,2013-05-12 16:23:00,
2013-05-12 09:32:00,64.0,52.0,-100.00,SW,215,3.0,4.0,66,0.00,,,0.00,395.000000,,2013-05-12 16:32:00,
2013-05-12 09:42:00,64.0,52.0,-100.00,SW,215,3.0,4.0,66,0.00,,,0.00,395.000000,,2013-05-12 16:42:00,
2013-05-12 09:52:00,64.0,52.0,-100.00,SW,215,3.0,4.0,66,0.00,,,0.00,395.000000,,2013-05-12 16:52:00,
2013-05-12 10:22:00,68.0,53.0,-100.00,SSW,211,6.0,10.0,59,0.00,,,0.00,577.000000,,2013-05-12 17:22:00,
2013-05-12 10:32:00,68.0,53.0,-100.00,SSW,211,6.0,10.0,59,0.00,,,0.00,577.000000,,2013-05-12 17:32:00,
2013-05-12 10:42:00,68.0,53.0,-100.00,SSW,211,6.0,10.0,59,0.00,,,0.00,577.000000,,2013-05-12 17:42:00,
2013-05-12 10:52:00,68.0,53.0,-100.00,SSW,211,6.0,10.0,59,0.00,,,0.00,577.000000,,2013-05-12 17:52:00,
2013-05-12 11:22:00,72.0,53.0,-100.00,SSW,205,6.0,12.0,52,0.00,,,0.00,728.000000,,2013-05-12 18:22:00,
2013-05-12 11:31:00,72.0,53.0,-100.00,SSW,205,6.0,12.0,52,0.00,,,0.00,728.000000,,2013-05-12 18:31:00,
2013-05-12 11:41:00,72.0,53.0,-100.00,SSW,205,6.0,12.0,52,0.00,,,0.00,728.000000,,2013-05-12 18:41:00,
2013-05-12 11:51:00,72.0,53.0,-100.00,SSW,205,6.0,12.0,52,0.00,,,0.00,728.000000,,2013-05-12 18:51:00,
2013-05-12 12:21:00,75.0,50.0,-100.00,South,180,8.0,17.0,41,0.00,,,0.00,892.000000,,2013-05-12 19:21:00,
2013-05-12 12:32:00,75.0,50.0,-100.00,South,180,8.0,17.0,41,0.00,,,0.00,892.000000,,2013-05-12 19:32:00,
2013-05-12 12:42:00,75.0,50.0,-100.00,South,180,8.0,17.0,41,0.00,,,0.00,892.000000,,2013-05-12 19:42:00,
2013-05-12 12:52:00,75.0,50.0,-100.00,South,180,8.0,17.0,41,0.00,,,0.00,892.000000,,2013-05-12 19:52:00,
2013-05-12 13:21:00,77.0,44.0,-100.00,SSW,209,9.0,16.0,31,0.00,,,0.00,957.000000,,2013-05-12 20:21:00,
2013-05-12 13:32:00,77.0,44.0,-100.00,SSW,209,9.0,16.0,31,0.00,,,0.00,957.000000,,2013-05-12 20:32:00,
2013-05-12 13:42:00,77.0,44.0,-100.00,SSW,209,9.0,16.0,31,0.00,,,0.00,957.000000,,2013-05-12 20:42:00,
2013-05-12 13:51:00,77.0,44.0,-100.00,SSW,209,9.0,16.0,31,0.00,,,0.00,957.000000,,2013-05-12 20:51:00,
2013-05-12 14:21:00,79.0,42.0,-100.00,South,188,10.0,20.0,27,0.00,,,0.00,980.000000,,2013-05-12 21:21:00,
2013-05-12 14:33:00,79.0,42.0,-100.00,South,188,10.0,20.0,27,0.00,,,0.00,980.000000,,2013-05-12 21:33:00,
2013-05-12 14:42:00,79.0,42.0,-100.00,South,188,10.0,20.0,27,0.00,,,0.00,980.000000,,2013-05-12 21:42:00,
2013-05-12 14:52:00,79.0,42.0,-100.00,South,188,10.0,20.0,27,0.00,,,0.00,980.000000,,2013-05-12 21:52:00,
2013-05-12 15:23:00,80.0,44.0,-100.00,SSW,192,8.0,17.0,28,0.00,,,0.00,916.000000,,2013-05-12 22:23:00,
2013-05-12 15:32:00,80.0,44.0,-100.00,SSW,192,8.0,17.0,28,0.00,,,0.00,916.000000,,2013-05-12 22:32:00,
2013-05-12 15:42:00,80.0,44.0,-100.00,SSW,192,8.0,17.0,28,0.00,,,0.00,916.000000,,2013-05-12 22:42:00,
2013-05-12 15:52:00,80.0,44.0,-100.00,SSW,192,8.0,17.0,28,0.00,,,0.00,916.000000,,2013-05-12 22:52:00,
2013-05-12 16:22:00,81.0,46.0,-100.00,SW,228,11.0,17.0,29,0.00,,,0.00,838.000000,,2013-05-12 23:22:00,
2013-05-12 16:32:00,81.0,46.0,-100.00,SW,228,11.0,17.0,29,0.00,,,0.00,838.000000,,2013-05-12 23:32:00,
2013-05-12 16:42:00,81.0,46.0,-100.00,SW,228,11.0,17.0,29,0.00,,,0.00,838.000000,,2013-05-12 23:42:00,
2013-05-12 16:51:00,81.0,46.0,-100.00,SW,228,11.0,17.0,29,0.00,,,0.00,838.000000,,2013-05-12 23:51:00,
2013-05-12 17:21:00,79.0,46.0,-100.00,West,263,11.0,20.0,31,0.00,,,0.00,685.000000,,2013-05-13 00:21:00,
2013-05-12 17:32:00,79.0,46.0,-100.00,West,263,11.0,20.0,31,0.00,,,0.00,685.000000,,2013-05-13 00:32:00,
2013-05-12 17:41:00,79.0,46.0,-100.00,West,263,11.0,20.0,31,0.00,,,0.00,685.000000,,2013-05-13 00:41:00,
2013-05-12 17:51:00,79.0,46.0,-100.00,West,263,11.0,20.0,31,0.00,,,0.00,685.000000,,2013-05-13 00:51:00,
2013-05-12 18:22:00,75.0,46.0,-100.00,West,269,13.0,21.0,36,0.00,,,0.00,456.000000,,2013-05-13 01:22:00,
2013-05-12 18:31:00,75.0,46.0,-100.00,West,269,13.0,21.0,36,0.00,,,0.00,456.000000,,2013-05-13 01:31:00,
2013-05-12 18:41:00,75.0,46.0,-100.00,West,269,13.0,21.0,36,0.00,,,0.00,456.000000,,2013-05-13 01:41:00,
2013-05-12 18:52:00,75.0,46.0,-100.00,West,269,13.0,21.0,36,0.00,,,0.00,456.000000,,2013-05-13 01:52:00,
2013-05-12 19:21:00,71.0,47.0,-100.00,West,274,11.0,20.0,43,0.00,,,-99.99,258.000000,,2013-05-13 02:21:00,
2013-05-12 19:31:00,71.0,47.0,-100.00,West,274,11.0,20.0,43,0.00,,,-99.99,258.000000,,2013-05-13 02:31:00,
2013-05-12 19:41:00,71.0,47.0,-100.00,West,274,11.0,20.0,43,0.00,,,-99.99,258.000000,,2013-05-13 02:41:00,
2013-05-12 19:51:00,71.0,47.0,-100.00,West,274,11.0,20.0,43,0.00,,,-99.99,258.000000,,2013-05-13 02:51:00,
2013-05-12 20:21:00,68.0,46.0,-100.00,West,266,12.0,18.0,46,0.00,,,0.00,119.000000,,2013-05-13 03:21:00,
2013-05-12 20:32:00,68.0,46.0,-100.00,West,266,12.0,18.0,46,0.00,,,0.00,119.000000,,2013-05-13 03:32:00,
2013-05-12 20:42:00,68.0,46.0,-100.00,West,266,12.0,18.0,46,0.00,,,0.00,119.000000,,2013-05-13 03:42:00,
2013-05-12 20:52:00,68.0,46.0,-100.00,West,266,12.0,18.0,46,0.00,,,0.00,119.000000,,2013-05-13 03:52:00,
2013-05-12 22:21:00,61.0,40.0,-100.00,WSW,241,6.0,15.0,45,-99.99,,,0.00,1.000000,,2013-05-13 05:21:00,
2013-05-12 22:32:00,61.0,40.0,-100.00,WSW,241,6.0,15.0,45,-99.99,,,0.00,1.000000,,2013-05-13 05:32:00,
2013-05-12 22:42:00,61.0,40.0,-100.00,WSW,241,6.0,15.0,45,-99.99,,,0.00,1.000000,,2013-05-13 05:42:00,
2013-05-12 22:51:00,61.0,40.0,-100.00,WSW,241,6.0,15.0,45,-99.99,,,0.00,1.000000,,2013-05-13 05:51:00,
2013-05-12 23:21:00,58.0,40.0,-100.00,SW,220,5.0,14.0,51,0.00,,,0.00,1.000000,,2013-05-13 06:21:00,
2013-05-12 23:31:00,58.0,40.0,-100.00,SW,220,5.0,14.0,51,0.00,,,0.00,1.000000,,2013-05-13 06:31:00,
2013-05-12 23:42:00,58.0,40.0,-100.00,SW,220,5.0,14.0,51,0.00,,,0.00,1.000000,,2013-05-13 06:42:00,
2013-05-12 23:52:00,58.0,40.0,-100.00,SW,220,5.0,14.0,51,0.00,,,0.00,1.000000,,2013-05-13 06:52:00,